TimeAEDT,TemperatureF,Dew PointF,Humidity,Sea Level PressureIn,VisibilityMPH,Wind Direction,Wind SpeedMPH,Gust SpeedMPH,PrecipitationIn,Events,Conditions,WindDirDegrees,DateUTC
12:00 AM,68.0,66.2,94,29.95,6.2,West,4.6,-,N/A,,Scattered Clouds,260,2013-12-13 13:00:00
12:30 AM,68.0,66.2,94,29.95,6.2,West,4.6,-,N/A,,Unknown,260,2013-12-13 13:30:00
1:00 AM,67,65,92,29.95,,WSW,5.8,,,,,250,2013-12-13 14:00:00
1:00 AM,68.0,64.4,88,29.95,6.2,WSW,5.8,-,N/A,,Unknown,250,2013-12-13 14:00:00
1:30 AM,68.0,66.2,94,29.95,6.2,WSW,6.9,-,N/A,,Mostly Cloudy,250,2013-12-13 14:30:00
2:00 AM,68.0,64.4,88,29.92,6.2,SSW,2.3,-,N/A,,Scattered Clouds,210,2013-12-13 15:00:00
2:30 AM,66.2,64.4,94,29.92,6.2,SSW,3.5,-,N/A,,Unknown,200,2013-12-13 15:30:00
3:00 AM,66.2,64.4,94,29.92,6.2,Calm,Calm,-,N/A,,Scattered Clouds,0,2013-12-13 16:00:00
3:30 AM,66.2,64.4,94,29.92,6.2,WSW,1.2,-,N/A,,Mostly Cloudy,240,2013-12-13 16:30:00
4:00 AM,66,64,91,29.92,,WSW,3.5,,,,,240,2013-12-13 17:00:00
4:00 AM,66.2,64.4,94,29.92,6.2,WSW,3.5,-,N/A,,Unknown,240,2013-12-13 17:00:00
4:30 AM,66.2,64.4,94,29.92,6.2,SW,1.2,-,N/A,,Scattered Clouds,230,2013-12-13 17:30:00
5:00 AM,66.2,62.6,88,29.92,6.2,Calm,Calm,-,N/A,,Scattered Clouds,0,2013-12-13 18:00:00
5:30 AM,66.2,64.4,94,29.92,6.2,SW,1.2,-,N/A,,Scattered Clouds,230,2013-12-13 18:30:00
6:00 AM,66.2,64.4,94,29.95,6.2,WSW,2.3,-,N/A,,Unknown,250,2013-12-13 19:00:00
6:30 AM,68.0,66.2,94,29.95,6.2,Calm,Calm,-,N/A,,Unknown,0,2013-12-13 19:30:00
7:00 AM,69,67,89,29.96,,Calm,Calm,,,,,,2013-12-13 20:00:00
7:00 AM,69.8,66.2,88,29.95,6.2,Calm,Calm,-,N/A,,Unknown,0,2013-12-13 20:00:00
7:30 AM,71.6,66.2,83,29.95,6.2,Calm,Calm,-,N/A,,Unknown,0,2013-12-13 20:30:00
8:00 AM,73.4,66.2,78,29.95,6.2,WSW,3.5,-,N/A,,Unknown,240,2013-12-13 21:00:00
8:30 AM,77.0,66.2,69,29.98,6.2,NNE,5.8,-,N/A,,Scattered Clouds,30,2013-12-13 21:30:00
9:00 AM,77.0,64.4,65,29.98,6.2,NE,6.9,-,N/A,,Unknown,40,2013-12-13 22:00:00
9:30 AM,77.0,64.4,65,29.98,6.2,North,8.1,-,N/A,,Unknown,10,2013-12-13 22:30:00
10:00 AM,77,66,60,29.98,,NE,8.1,,,,,40,2013-12-13 23:00:00
10:00 AM,77.0,66.2,69,29.98,6.2,NE,8.1,-,N/A,,Unknown,40,2013-12-13 23:00:00
10:30 AM,77.0,64.4,65,29.98,6.2,NE,9.2,-,N/A,,Unknown,40,2013-12-13 23:30:00
11:00 AM,77.0,64.4,65,29.98,6.2,NNE,10.4,-,N/A,,Unknown,30,2013-12-14 00:00:00
11:30 AM,77.0,66.2,69,29.98,6.2,ENE,10.4,-,N/A,,Unknown,60,2013-12-14 00:30:00
12:00 PM,78.8,68.0,69,29.95,6.2,ENE,11.5,-,N/A,,Unknown,60,2013-12-14 01:00:00
12:30 PM,78.8,66.2,65,29.95,6.2,NE,11.5,-,N/A,,Unknown,50,2013-12-14 01:30:00
1:00 PM,79,65,54,29.95,,NE,12.7,,,,,40,2013-12-14 02:00:00
1:00 PM,78.8,66.2,65,29.95,6.2,NE,12.7,-,N/A,,Unknown,40,2013-12-14 02:00:00
1:30 PM,78.8,66.2,65,29.92,6.2,NE,12.7,-,N/A,,Unknown,40,2013-12-14 02:30:00
2:00 PM,78.8,66.2,65,29.92,6.2,NNE,12.7,-,N/A,,Unknown,30,2013-12-14 03:00:00
2:30 PM,78.8,66.2,65,29.92,6.2,NE,12.7,-,N/A,,Unknown,40,2013-12-14 03:30:00
3:00 PM,78.8,68.0,69,29.92,6.2,NNE,12.7,-,N/A,,Unknown,30,2013-12-14 04:00:00
3:30 PM,78.8,66.2,65,29.92,6.2,NNE,11.5,-,N/A,,Unknown,30,2013-12-14 04:30:00
4:00 PM,77,65,59,29.91,,NNE,11.5,,,,,20,2013-12-14 05:00:00
4:00 PM,77.0,66.2,69,29.89,6.2,NNE,11.5,-,N/A,,Unknown,20,2013-12-14 05:00:00
4:30 PM,77.0,66.2,69,29.92,6.2,NNE,9.2,-,N/A,,Unknown,30,2013-12-14 05:30:00
5:00 PM,77.0,64.4,65,29.92,6.2,NNE,10.4,-,N/A,,Unknown,20,2013-12-14 06:00:00
5:30 PM,75.2,66.2,73,29.89,6.2,NNE,9.2,-,N/A,,Unknown,20,2013-12-14 06:30:00
6:00 PM,75.2,66.2,73,29.89,6.2,NNE,10.4,-,N/A,,Unknown,20,2013-12-14 07:00:00
6:30 PM,75.2,66.2,73,29.92,6.2,North,9.2,-,N/A,,Mostly Cloudy,10,2013-12-14 07:30:00
7:00 PM,75,66,67,29.95,,NNW,5.8,,,,,340,2013-12-14 08:00:00
7:00 PM,75.2,66.2,73,29.95,6.2,NNW,5.8,-,N/A,,Mostly Cloudy,340,2013-12-14 08:00:00
7:30 PM,75.2,66.2,73,29.92,6.2,North,9.2,-,N/A,,Scattered Clouds,10,2013-12-14 08:30:00
8:00 PM,73.4,68.0,83,29.95,6.2,NNE,5.8,-,N/A,,Scattered Clouds,30,2013-12-14 09:00:00
8:30 PM,73.4,68.0,83,29.98,6.2,NE,8.1,-,N/A,,Scattered Clouds,40,2013-12-14 09:30:00
9:00 PM,73.4,68.0,83,30.04,6.2,SE,5.8,-,N/A,,Mostly Cloudy,130,2013-12-14 10:00:00
9:30 PM,73.4,68.0,83,30.04,6.2,West,4.6,-,N/A,,Overcast,280,2013-12-14 10:30:00
9:52 PM,73.4,68.0,83,29.95,6.2,North,13.8,-,N/A,,Overcast,350,2013-12-14 10:52:00
10:00 PM,73,68,79,29.93,,North,19.6,,,,Overcast,0,2013-12-14 11:00:00
10:00 PM,73.4,68.0,83,29.92,6.2,North,19.6,-,N/A,,Mostly Cloudy,360,2013-12-14 11:00:00
10:30 PM,73.4,66.2,78,29.95,6.2,WNW,8.1,-,N/A,,Unknown,300,2013-12-14 11:30:00
11:00 PM,71.6,66.2,83,29.98,6.2,WNW,5.8,-,N/A,,Unknown,300,2013-12-14 12:00:00
11:30 PM,71.6,68.0,88,30.01,6.2,South,8.1,-,N/A,,Overcast,190,2013-12-14 12:30:00